Location: Zagreb
(45.8000°N, 16.0000°E)
Time: 20:26:41
(UTC+01:00)

YUBILEINY - Pass Details

Date: 07 November 2020
Orbit: 1478 x 1509 km, 82.5° (Epoch: 01 December)

Event Time Altitude Azimuth Distance (km) Brightness Sun altitude
Rises 21:10:10 0° 348° (NNW) 4,610 ? -47.4°
Reaches altitude 10° 21:13:05 10° 346° (NNW) 3,627 ? -47.8°
Enters shadow 21:17:12 32° 336° (NNW) 2,347 ? -48.4°
